Regional Weather Roundup
Issued by NWS Midland/Odessa, TX

Skip options and go directly to product.
Home | Oldest Version | Previous Version | Current Version | All | Text Only | Save Text | Print | Product List | Glossary On

Skip product version selection by date and time.   
169
ASUS44 KMAF 261910
RWRMAF
MIDLAND AREA WEATHER ROUNDUP
NATIONAL WEATHER SERVICE MIDLAND TX
200 PM CDT SUN APR 26 2015

...IN SOUTHWEST TEXAS AND SOUTHEAST NEW MEXICO...

CITY           SKY/WX    TMP DP  RH WIND       PRES   REMARKS
ALPINE         SUNNY     77  22  12 SW25G31   29.80F
ANDREWS        FAIR      80  24  12 W8G20     29.65F
ARTESIA        PTSUNNY   72  28  20 W25G35    29.71F
BIG SPRING     SUNNY     87  23  10 SW9       29.63F
CARLSBAD       MOSUNNY   73  22  14 W29G45    29.65F
DRYDEN           N/A     93  15   6 SW21G28   29.60F
FORT STOCKTON  MOSUNNY   85  23  10 SW20G28   29.64F
GUAD PASS      CLOUDY    58  32  37 W38G56    29.80R HAZE
HOBBS          SUNNY     73  23  15 SW12G24   29.68F
MARFA          SUNNY     75  25  15 SW20G28   29.78F
MIDLAND AIRPK  SUNNY     84  25  11 SW12G21   29.65F
MIDLAND INTL   MOSUNNY   83  28  13 SW16      29.64F
ODESSA         MOSUNNY   81  22  11 SW20G26   29.65F
PECOS          MOSUNNY   84  30  14 S13G18    29.62F
PRESIDIO       FAIR      86  15   7 S7        29.67F
SEMINOLE       PTSUNNY   79  26  14 SW8       29.67F
SNYDER         MOSUNNY   82  47  29 S3        29.61F
WINK           MOSUNNY   85  19   9 S14G21    29.61F
$$
...OTHER STATIONS IN TEXAS...

CITY           SKY/WX    TMP DP  RH WIND       PRES   REMARKS
ABILENE        PTSUNNY   80  63  55 SE17      29.61F
AMARILLO       CLOUDY    74  44  34 E18G25    29.68F
AUSTIN         CLOUDY    81  70  69 SE15      29.67F
BROWNSVILLE    PTSUNNY   87  78  74 SE13      29.64F HX 100
CORPUS CHRISTI CLOUDY    80  77  90 SE13      29.66F
DALLAS FTW     LGT RAIN  82  67  60 SW12      29.70R
DEL RIO        MOSUNNY   90  66  45 E9        29.57F
EL PASO        CLOUDY    56  35  45 W18G28    29.84S
HOUSTON INT    CLOUDY    82  70  66 NE3       29.71R
LUBBOCK        PTSUNNY   79  23  12 CALM      29.63F
SAN ANGELO     SUNNY     90  54  29 SW12G23   29.58F
SAN ANTONIO    CLOUDY    82  69  64 S13       29.68F
WACO           PTSUNNY   76  68  76 E7        29.67F
WICHITA FALLS  NOT AVBL
$$
...OTHER LOCATIONS IN NEW MEXICO...

CITY           SKY/WX    TMP DP  RH WIND       PRES   REMARKS
ALAMAGORDO     CLOUDY    50  36  57 S16G22    29.83S
ALBUQUERQUE    CLOUDY    51  38  60 S12       29.74F
CANNON AFB     NOT AVBL
CLOVIS         CLOUDY    68  25  19 SW16      29.71R
HOLLOMAN AFB   PTSUNNY   54  36  50 S13       29.81R
ROSWELL        CLOUDY    69  26  20 SW32G44   29.67F
RUIDOSO        PTSUNNY   46  30  53 SW20G32   29.79F WCI  39
SANTA FE       CLOUDY    44  34  67 VRB3      29.76F
TRUTH OR CONSE PTSUNNY   58  29  33 S9G20     29.73F
TUCUMCARI      CLOUDY    69  24  18 SW15G26   29.67F
$$

USA.gov is the U.S. government's official web portal to all federal, state and local government web resources and services.